MWI052 FWKI-HUEN

Flight info

Callsign MWI052
Flight time 1h 59m
Altitude 38000
Route ANTOP1E ANTOP UG656 APNAD APNAD2A
Aircraft B737/M-SABDE2E3FGHIRWXY/LB1

Departure

Time 2026-04-24 19:01
Airport Kamuzu International Airport (FWKI)

Arrival

Time 2026-04-24 21:01
Airport Entebbe International Airport (HUEN)
Time Latitude Longitude Altitude Speed Heading
2026-04-24 18:54 -13.78159 33.77842 4023 ft 0 kts 130°
2026-04-24 18:58 -13.78160 33.77844 4023 ft 1 kts 131°
2026-04-24 18:58 -13.78205 33.77863 4027 ft 14 kts 176°
2026-04-24 18:59 -13.78308 33.77789 4027 ft 25 kts 220°
2026-04-24 18:59 -13.78415 33.77698 4026 ft 8 kts 220°
2026-04-24 18:59 -13.78459 33.77661 4026 ft 6 kts 218°
2026-04-24 18:59 -13.78464 33.77657 4026 ft 0 kts 217°
2026-04-24 19:00 -13.78476 33.77647 4027 ft 5 kts 217°
2026-04-24 19:00 -13.78501 33.77627 4027 ft 4 kts 217°
2026-04-24 19:00 -13.78522 33.77619 4027 ft 9 kts 188°
2026-04-24 19:00 -13.78630 33.77727 4026 ft 53 kts 130°
2026-04-24 19:01 -13.79038 33.78225 4024 ft 126 kts 130°
2026-04-24 19:01 -13.79702 33.79034 4319 ft 156 kts 130°
2026-04-24 19:01 -13.80395 33.79913 5084 ft 161 kts 129°
2026-04-24 19:01 -13.81081 33.80867 5645 ft 181 kts 110°
2026-04-24 19:02 -13.81212 33.81773 5913 ft 199 kts 92°
2026-04-24 19:02 -13.81340 33.83761 6577 ft 224 kts 98°
2026-04-24 19:02 -13.81484 33.85357 6779 ft 256 kts 96°
2026-04-24 19:02 -13.81592 33.87259 7395 ft 273 kts 87°
2026-04-24 19:03 -13.80990 33.89117 8329 ft 280 kts 57°
2026-04-24 19:03 -13.79585 33.90526 9354 ft 286 kts 32°
2026-04-24 19:03 -13.77715 33.91207 10302 ft 291 kts
2026-04-24 19:03 -13.75614 33.91216 10819 ft 314 kts 358°
2026-04-24 19:04 -13.73348 33.90984 11161 ft 337 kts 354°
2026-04-24 19:04 -13.70975 33.90667 11671 ft 353 kts 354°
2026-04-24 19:04 -13.68501 33.90321 12344 ft 361 kts 354°
2026-04-24 19:04 -13.65996 33.89976 13194 ft 364 kts 355°
2026-04-24 19:05 -13.63478 33.89641 14034 ft 367 kts 355°
2026-04-24 19:05 -13.60965 33.89319 14702 ft 372 kts 355°
2026-04-24 19:05 -13.58361 33.88994 15355 ft 378 kts 355°
2026-04-24 19:05 -13.55738 33.88672 16003 ft 383 kts 355°
2026-04-24 19:06 -13.53063 33.88347 16657 ft 388 kts 355°
2026-04-24 19:06 -13.50374 33.88024 17290 ft 392 kts 354°
2026-04-24 19:06 -13.47637 33.87695 17898 ft 397 kts 354°
2026-04-24 19:06 -13.44903 33.87367 18424 ft 403 kts 354°
2026-04-24 19:07 -13.42078 33.87029 18927 ft 407 kts 354°
2026-04-24 19:07 -13.39269 33.86692 19524 ft 407 kts 354°
2026-04-24 19:07 -13.37416 33.86470 19894 ft 408 kts 354°
2026-04-24 19:07 -13.33595 33.86013 20556 ft 413 kts 354°
2026-04-24 19:08 -13.30763 33.85675 21042 ft 416 kts 354°
2026-04-24 19:08 -13.27837 33.85325 21552 ft 419 kts 354°
2026-04-24 19:08 -13.24964 33.84981 22037 ft 422 kts 354°
2026-04-24 19:08 -13.22035 33.84632 22522 ft 425 kts 355°
2026-04-24 19:09 -13.19082 33.84279 23008 ft 427 kts 355°
2026-04-24 19:09 -13.16124 33.83926 23473 ft 430 kts 355°
2026-04-24 19:09 -13.13143 33.83570 23864 ft 432 kts 355°
2026-04-24 19:09 -13.10151 33.83212 24207 ft 435 kts 355°
2026-04-24 19:10 -13.07145 33.82854 24548 ft 438 kts 354°
2026-04-24 19:10 -13.04087 33.82489 24884 ft 441 kts 354°
2026-04-24 19:10 -13.01030 33.82124 25221 ft 443 kts 354°
2026-04-24 19:10 -12.97948 33.81756 25553 ft 446 kts 354°
2026-04-24 19:11 -12.94863 33.81388 25875 ft 448 kts 354°
2026-04-24 19:11 -12.91752 33.81017 26192 ft 451 kts 354°
2026-04-24 19:11 -12.88636 33.80646 26506 ft 453 kts 354°
2026-04-24 19:11 -12.85525 33.80275 26808 ft 455 kts 354°
2026-04-24 19:12 -12.82379 33.79900 27122 ft 457 kts 354°
2026-04-24 19:12 -12.79212 33.79523 27421 ft 459 kts 354°
2026-04-24 19:12 -12.76018 33.79143 27695 ft 462 kts 354°
2026-04-24 19:12 -12.72840 33.78764 27957 ft 464 kts 354°
2026-04-24 19:13 -12.70670 33.78506 28144 ft 465 kts 354°
2026-04-24 19:13 -12.66400 33.77998 28493 ft 468 kts 354°
2026-04-24 19:13 -12.63158 33.77612 28743 ft 470 kts 354°
2026-04-24 19:13 -12.59905 33.77225 28982 ft 472 kts 354°
2026-04-24 19:14 -12.56627 33.76835 29209 ft 474 kts 354°
2026-04-24 19:14 -12.53322 33.76442 29430 ft 476 kts 353°
2026-04-24 19:14 -12.50030 33.76051 29665 ft 478 kts 353°
2026-04-24 19:14 -12.46728 33.75659 29892 ft 480 kts 353°
2026-04-24 19:15 -12.43420 33.75266 30096 ft 482 kts 353°
2026-04-24 19:15 -12.40093 33.74871 30269 ft 484 kts 353°
2026-04-24 19:15 -12.36730 33.74472 30434 ft 485 kts 353°
2026-04-24 19:15 -12.33375 33.74074 30595 ft 487 kts 353°
2026-04-24 19:16 -12.27766 33.73409 30958 ft 487 kts 353°
2026-04-24 19:16 -12.23803 33.72939 31245 ft 488 kts 353°
2026-04-24 19:16 -12.20403 33.72536 31459 ft 489 kts 353°
2026-04-24 19:17 -12.17064 33.72140 31713 ft 489 kts 353°
2026-04-24 19:17 -12.13651 33.71736 31992 ft 489 kts 353°
2026-04-24 19:17 -12.10268 33.71335 32250 ft 489 kts 353°
2026-04-24 19:17 -12.06886 33.70935 32508 ft 490 kts 353°
2026-04-24 19:18 -12.03506 33.70535 32754 ft 491 kts 353°
2026-04-24 19:18 -12.00150 33.70138 33110 ft 489 kts 353°
2026-04-24 19:18 -11.96766 33.69737 33457 ft 488 kts 353°
2026-04-24 19:18 -11.93395 33.69338 33819 ft 487 kts 353°
2026-04-24 19:19 -11.90025 33.68940 34114 ft 488 kts 353°
2026-04-24 19:19 -11.86648 33.68540 34363 ft 489 kts 353°
2026-04-24 19:19 -11.83256 33.68139 34679 ft 488 kts 353°
2026-04-24 19:19 -11.79881 33.67740 35047 ft 487 kts 353°
2026-04-24 19:20 -11.76517 33.67342 35364 ft 486 kts 353°
2026-04-24 19:20 -11.73161 33.66945 35657 ft 486 kts 353°
2026-04-24 19:20 -11.69793 33.66547 35937 ft 486 kts 353°
2026-04-24 19:20 -11.66430 33.66149 36230 ft 486 kts 353°
2026-04-24 19:21 -11.63121 33.65758 36501 ft 486 kts 353°
2026-04-24 19:21 -11.59711 33.65354 36752 ft 486 kts 353°
2026-04-24 19:21 -11.56352 33.64956 37000 ft 487 kts 353°
2026-04-24 19:21 -11.52991 33.64558 37282 ft 486 kts 353°
2026-04-24 19:22 -11.50769 33.64296 37463 ft 486 kts 353°
2026-04-24 19:22 -11.46311 33.63847 37775 ft 486 kts 356°
2026-04-24 19:22 -11.42934 33.63623 38011 ft 487 kts 356°
2026-04-24 19:22 -11.39546 33.63408 38272 ft 486 kts 356°
2026-04-24 19:23 -11.36168 33.63171 38533 ft 486 kts 356°
2026-04-24 19:23 -11.32801 33.62920 38752 ft 486 kts 356°
2026-04-24 19:23 -11.29415 33.62670 38934 ft 486 kts 356°
2026-04-24 19:23 -11.26038 33.62423 39062 ft 487 kts 356°
2026-04-24 19:24 -11.19216 33.61924 39064 ft 494 kts 356°
2026-04-24 19:24 -11.12371 33.61422 39061 ft 496 kts 356°
2026-04-24 19:25 -11.05482 33.60915 39062 ft 497 kts 356°
2026-04-24 19:25 -10.98578 33.60408 39058 ft 497 kts 356°
2026-04-24 19:26 -10.91661 33.59899 39069 ft 497 kts 356°
2026-04-24 19:26 -10.84779 33.59393 39066 ft 496 kts 356°
2026-04-24 19:27 -10.77885 33.58885 39068 ft 496 kts 356°
2026-04-24 19:27 -10.71007 33.58379 39076 ft 495 kts 356°
2026-04-24 19:28 -10.64120 33.57865 39072 ft 495 kts 356°
2026-04-24 19:28 -10.57247 33.57336 39080 ft 495 kts 356°
2026-04-24 19:29 -10.46989 33.56543 39076 ft 495 kts 356°
2026-04-24 19:30 -10.40112 33.56013 39074 ft 495 kts 356°
2026-04-24 19:30 -10.33245 33.55484 39066 ft 495 kts 356°
2026-04-24 19:31 -10.26414 33.54959 39067 ft 495 kts 356°
2026-04-24 19:31 -10.19534 33.54430 39059 ft 495 kts 356°
2026-04-24 19:32 -10.12662 33.53901 39060 ft 495 kts 356°
2026-04-24 19:32 -10.05792 33.53373 39055 ft 495 kts 356°
2026-04-24 19:33 -9.98917 33.52845 39057 ft 495 kts 356°
2026-04-24 19:33 -9.92055 33.52317 39046 ft 495 kts 356°
2026-04-24 19:34 -9.85175 33.51788 39042 ft 495 kts 356°
2026-04-24 19:34 -9.78353 33.51264 39052 ft 495 kts 356°
2026-04-24 19:35 -9.71486 33.50735 39052 ft 495 kts 356°
2026-04-24 19:35 -9.64614 33.50205 39049 ft 495 kts 356°
2026-04-24 19:36 -9.57753 33.49724 39054 ft 494 kts 358°
2026-04-24 19:36 -9.50880 33.49351 39061 ft 494 kts 358°
2026-04-24 19:37 -9.44016 33.48976 39068 ft 494 kts 358°
2026-04-24 19:37 -9.37182 33.48583 39071 ft 493 kts 358°
2026-04-24 19:38 -9.30331 33.48185 39076 ft 493 kts 358°
2026-04-24 19:38 -9.23484 33.47783 39078 ft 492 kts 357°
2026-04-24 19:39 -9.16640 33.47351 39084 ft 492 kts 357°
2026-04-24 19:39 -9.09846 33.46917 39074 ft 492 kts 357°
2026-04-24 19:40 -9.03004 33.46482 39070 ft 491 kts 357°
2026-04-24 19:40 -8.96181 33.46050 39068 ft 491 kts 357°
2026-04-24 19:41 -8.90523 33.45645 39056 ft 490 kts 355°
2026-04-24 19:41 -8.83740 33.44845 39053 ft 490 kts 353°
2026-04-24 19:42 -8.76970 33.43950 39032 ft 490 kts 353°
2026-04-24 19:42 -8.69114 33.42940 39027 ft 489 kts 353°
2026-04-24 19:43 -8.62359 33.42099 39022 ft 489 kts 354°
2026-04-24 19:43 -8.56702 33.41401 39020 ft 489 kts 354°
2026-04-24 19:44 -8.49993 33.40571 39014 ft 488 kts 354°
2026-04-24 19:44 -8.43248 33.39737 39014 ft 488 kts 354°
2026-04-24 19:45 -8.36502 33.38902 39015 ft 488 kts 354°
2026-04-24 19:45 -8.29771 33.38068 39011 ft 487 kts 354°
2026-04-24 19:46 -8.23039 33.37235 39018 ft 487 kts 354°
2026-04-24 19:46 -8.16308 33.36403 39017 ft 487 kts 354°
2026-04-24 19:47 -8.09615 33.35575 39018 ft 486 kts 354°
2026-04-24 19:47 -8.02904 33.34745 39016 ft 486 kts 354°
2026-04-24 19:48 -7.96170 33.33913 39013 ft 486 kts 354°
2026-04-24 19:48 -7.86094 33.32667 39017 ft 486 kts 354°
2026-04-24 19:49 -7.72718 33.31011 39022 ft 486 kts 354°
2026-04-24 19:50 -7.59262 33.29426 39018 ft 486 kts 355°
2026-04-24 19:51 -7.49154 33.28332 39018 ft 486 kts 355°
2026-04-24 19:52 -7.39107 33.27225 39010 ft 486 kts 355°
2026-04-24 19:52 -7.32389 33.26480 39013 ft 486 kts 355°
2026-04-24 19:53 -7.25660 33.25733 39006 ft 486 kts 355°
2026-04-24 19:54 -7.15577 33.24616 39009 ft 485 kts 355°
2026-04-24 19:54 -7.08858 33.23872 39007 ft 485 kts 355°
2026-04-24 19:55 -7.03288 33.23255 39004 ft 485 kts 355°
2026-04-24 19:55 -6.95489 33.22392 39010 ft 484 kts 355°
2026-04-24 19:56 -6.88790 33.21651 39010 ft 484 kts 355°
2026-04-24 19:56 -6.82099 33.20911 39013 ft 483 kts 355°
2026-04-24 19:57 -6.75411 33.20171 39014 ft 483 kts 355°
2026-04-24 19:57 -6.68733 33.19433 39013 ft 483 kts 355°
2026-04-24 19:58 -6.62057 33.18695 39023 ft 482 kts 355°
2026-04-24 19:58 -6.55425 33.17962 39023 ft 482 kts 355°
2026-04-24 19:59 -6.48754 33.17225 39027 ft 482 kts 355°
2026-04-24 19:59 -6.42102 33.16491 39030 ft 482 kts 355°
2026-04-24 20:00 -6.35425 33.15753 39066 ft 482 kts 355°
2026-04-24 20:00 -6.28746 33.15016 39064 ft 482 kts 355°
2026-04-24 20:01 -6.22082 33.14281 39075 ft 481 kts 355°
2026-04-24 20:01 -6.15456 33.13549 39067 ft 481 kts 355°
2026-04-24 20:02 -6.09898 33.12936 39077 ft 482 kts 355°
2026-04-24 20:02 -6.02115 33.12078 39079 ft 482 kts 355°
2026-04-24 20:03 -5.95445 33.11342 39082 ft 482 kts 355°
2026-04-24 20:03 -5.88770 33.10605 39083 ft 482 kts 355°
2026-04-24 20:04 -5.82088 33.09868 39084 ft 482 kts 355°
2026-04-24 20:04 -5.75425 33.09132 39090 ft 482 kts 355°
2026-04-24 20:05 -5.68746 33.08394 39089 ft 482 kts 355°
2026-04-24 20:05 -5.62088 33.07659 39094 ft 482 kts 355°
2026-04-24 20:06 -5.55423 33.06899 39093 ft 481 kts 354°
2026-04-24 20:06 -5.48822 33.06120 39094 ft 481 kts 354°
2026-04-24 20:07 -5.43236 33.05459 39095 ft 481 kts 354°
2026-04-24 20:07 -5.35526 33.04552 39104 ft 480 kts 354°
2026-04-24 20:08 -5.28887 33.03772 39109 ft 480 kts 354°
2026-04-24 20:08 -5.22278 33.02996 39109 ft 480 kts 354°
2026-04-24 20:09 -5.15651 33.02217 39109 ft 479 kts 354°
2026-04-24 20:09 -5.09031 33.01437 39105 ft 479 kts 354°
2026-04-24 20:10 -5.02406 33.00663 39106 ft 479 kts 354°
2026-04-24 20:10 -4.95772 32.99925 39106 ft 479 kts 355°
2026-04-24 20:11 -4.89151 32.99193 39111 ft 479 kts 355°
2026-04-24 20:11 -4.82525 32.98454 39107 ft 478 kts 355°
2026-04-24 20:12 -4.75946 32.97717 39114 ft 478 kts 354°
2026-04-24 20:12 -4.69340 32.96976 39108 ft 478 kts 354°
2026-04-24 20:13 -4.62728 32.96235 39103 ft 478 kts 354°
2026-04-24 20:13 -4.56156 32.95497 39106 ft 478 kts 354°
2026-04-24 20:14 -4.49522 32.94753 39100 ft 478 kts 354°
2026-04-24 20:14 -4.42899 32.94009 39100 ft 477 kts 354°
2026-04-24 20:15 -4.36298 32.93257 39097 ft 477 kts 354°
2026-04-24 20:15 -4.29726 32.92506 39093 ft 477 kts 354°
2026-04-24 20:16 -4.23129 32.91752 39094 ft 477 kts 354°
2026-04-24 20:16 -4.16522 32.90997 39088 ft 477 kts 354°
2026-04-24 20:17 -4.09920 32.90243 39090 ft 477 kts 354°
2026-04-24 20:17 -4.00024 32.89113 39086 ft 477 kts 354°
2026-04-24 20:18 -3.93422 32.88358 39085 ft 477 kts 354°
2026-04-24 20:18 -3.86865 32.87608 39084 ft 477 kts 354°
2026-04-24 20:19 -3.80259 32.86852 39079 ft 477 kts 354°
2026-04-24 20:19 -3.73658 32.86108 39076 ft 477 kts 354°
2026-04-24 20:20 -3.67069 32.85384 39076 ft 477 kts 354°
2026-04-24 20:20 -3.60462 32.84656 39072 ft 477 kts 354°
2026-04-24 20:21 -3.53865 32.83925 39073 ft 477 kts 354°
2026-04-24 20:21 -3.47305 32.83196 39071 ft 477 kts 354°
2026-04-24 20:22 -3.40713 32.82463 39070 ft 476 kts 354°
2026-04-24 20:22 -3.34123 32.81731 39069 ft 476 kts 354°
2026-04-24 20:23 -3.27570 32.81003 39065 ft 476 kts 354°
2026-04-24 20:23 -3.20987 32.80272 39066 ft 476 kts 354°
2026-04-24 20:24 -3.14404 32.79541 39061 ft 475 kts 354°
2026-04-24 20:24 -3.07828 32.78811 39058 ft 475 kts 354°
2026-04-24 20:25 -3.01265 32.78082 39058 ft 475 kts 354°
2026-04-24 20:25 -2.94716 32.77354 39053 ft 474 kts 354°
2026-04-24 20:26 -2.88154 32.76625 39048 ft 474 kts 354°
2026-04-24 20:26 -2.81589 32.75894 39050 ft 474 kts 354°
2026-04-24 20:27 -2.75044 32.75166 39043 ft 473 kts 354°
2026-04-24 20:27 -2.68615 32.74445 39044 ft 473 kts 354°
2026-04-24 20:28 -2.62062 32.73698 39039 ft 473 kts 354°
2026-04-24 20:28 -2.55520 32.72949 39041 ft 473 kts 354°
2026-04-24 20:29 -2.48983 32.72204 39038 ft 473 kts 354°
2026-04-24 20:29 -2.42466 32.71484 39036 ft 472 kts 354°
2026-04-24 20:30 -2.37013 32.70888 39028 ft 472 kts 354°
2026-04-24 20:30 -2.29386 32.70044 39020 ft 472 kts 354°
2026-04-24 20:31 -2.23961 32.69439 39008 ft 472 kts 354°
2026-04-24 20:31 -2.16358 32.68591 38989 ft 472 kts 354°
2026-04-24 20:32 -2.10882 32.67980 38983 ft 472 kts 354°
2026-04-24 20:32 -2.04400 32.67257 38973 ft 472 kts 354°
2026-04-24 20:33 -1.97863 32.66528 38963 ft 471 kts 354°
2026-04-24 20:33 -1.94657 32.66170 38947 ft 459 kts 354°
2026-04-24 20:33 -1.91543 32.65822 38942 ft 447 kts 354°
2026-04-24 20:34 -1.85383 32.65134 38896 ft 441 kts 354°
2026-04-24 20:34 -1.82353 32.64795 38602 ft 435 kts 354°
2026-04-24 20:34 -1.79347 32.64459 37916 ft 437 kts 354°
2026-04-24 20:35 -1.76313 32.64120 37105 ft 441 kts 353°
2026-04-24 20:35 -1.73246 32.63778 36326 ft 444 kts 353°
2026-04-24 20:35 -1.70175 32.63431 35640 ft 445 kts 353°
2026-04-24 20:35 -1.67100 32.63074 35109 ft 442 kts 353°
2026-04-24 20:36 -1.64100 32.62721 34713 ft 436 kts 353°
2026-04-24 20:36 -1.61124 32.62370 34465 ft 427 kts 353°
2026-04-24 20:36 -1.58195 32.62025 34205 ft 419 kts 353°
2026-04-24 20:36 -1.55278 32.61680 33996 ft 427 kts 353°
2026-04-24 20:37 -1.52274 32.61325 33783 ft 442 kts 353°
2026-04-24 20:37 -1.49190 32.60961 33534 ft 451 kts 353°
2026-04-24 20:37 -1.46056 32.60592 33269 ft 453 kts 353°
2026-04-24 20:37 -1.42951 32.60226 33011 ft 449 kts 353°
2026-04-24 20:38 -1.39853 32.59862 32760 ft 446 kts 353°
2026-04-24 20:38 -1.36764 32.59499 32505 ft 444 kts 353°
2026-04-24 20:38 -1.33709 32.59140 32260 ft 441 kts 353°
2026-04-24 20:38 -1.30653 32.58780 32015 ft 439 kts 353°
2026-04-24 20:39 -1.27631 32.58425 31777 ft 438 kts 353°
2026-04-24 20:39 -1.24609 32.58069 31535 ft 436 kts 353°
2026-04-24 20:39 -1.21596 32.57714 31305 ft 434 kts 353°
2026-04-24 20:39 -1.18593 32.57360 31072 ft 433 kts 353°
2026-04-24 20:40 -1.15638 32.57012 30846 ft 432 kts 353°
2026-04-24 20:40 -1.12650 32.56660 30616 ft 431 kts 353°
2026-04-24 20:40 -1.09673 32.56308 30393 ft 430 kts 353°
2026-04-24 20:40 -1.06697 32.55957 30163 ft 429 kts 354°
2026-04-24 20:41 -1.03738 32.55610 29936 ft 428 kts 354°
2026-04-24 20:41 -1.00794 32.55155 29650 ft 428 kts 345°
2026-04-24 20:41 -0.98112 32.53998 29396 ft 427 kts 330°
2026-04-24 20:41 -0.95575 32.52448 29157 ft 425 kts 328°
2026-04-24 20:42 -0.93085 32.50853 28889 ft 423 kts 328°
2026-04-24 20:42 -0.90607 32.49262 28648 ft 422 kts 328°
2026-04-24 20:42 -0.88134 32.47696 28396 ft 420 kts 328°
2026-04-24 20:42 -0.85655 32.46145 28146 ft 418 kts 329°
2026-04-24 20:43 -0.83189 32.44616 27895 ft 416 kts 329°
2026-04-24 20:43 -0.80733 32.43098 27655 ft 414 kts 329°
2026-04-24 20:43 -0.78316 32.41615 27414 ft 412 kts 331°
2026-04-24 20:43 -0.75641 32.40550 27143 ft 409 kts 349°
2026-04-24 20:44 -0.72849 32.40089 26939 ft 406 kts 353°
2026-04-24 20:44 -0.70061 32.39726 26696 ft 402 kts 354°
2026-04-24 20:44 -0.67297 32.39388 26469 ft 401 kts 354°
2026-04-24 20:44 -0.64547 32.39045 26240 ft 401 kts 353°
2026-04-24 20:45 -0.61782 32.38688 26019 ft 400 kts 353°
2026-04-24 20:45 -0.59040 32.38321 25785 ft 398 kts 353°
2026-04-24 20:45 -0.56297 32.37947 25368 ft 397 kts 353°
2026-04-24 20:45 -0.53572 32.37570 24866 ft 393 kts 353°
2026-04-24 20:46 -0.50872 32.37195 24335 ft 390 kts 353°
2026-04-24 20:46 -0.48194 32.36822 23785 ft 389 kts 353°
2026-04-24 20:46 -0.45514 32.36449 23159 ft 387 kts 353°
2026-04-24 20:46 -0.42880 32.36082 22563 ft 377 kts 353°
2026-04-24 20:47 -0.40303 32.35723 22006 ft 367 kts 353°
2026-04-24 20:47 -0.37811 32.35376 21480 ft 357 kts 354°
2026-04-24 20:47 -0.35411 32.35042 20979 ft 349 kts 354°
2026-04-24 20:47 -0.33028 32.34711 20480 ft 342 kts 354°
2026-04-24 20:48 -0.30690 32.34386 19997 ft 340 kts 354°
2026-04-24 20:48 -0.28341 32.34059 19496 ft 341 kts 354°
2026-04-24 20:48 -0.25960 32.33728 18982 ft 350 kts 354°
2026-04-24 20:48 -0.23537 32.33392 18452 ft 352 kts 354°
2026-04-24 20:49 -0.21128 32.33057 17866 ft 345 kts 354°
2026-04-24 20:49 -0.18768 32.32729 17322 ft 336 kts 354°
2026-04-24 20:49 -0.16515 32.32416 16816 ft 328 kts 354°
2026-04-24 20:49 -0.14279 32.32107 16319 ft 320 kts 354°
2026-04-24 20:50 -0.12076 32.31802 15853 ft 319 kts 354°
2026-04-24 20:50 -0.09870 32.31496 15368 ft 322 kts 354°
2026-04-24 20:50 -0.07631 32.31186 14865 ft 330 kts 354°
2026-04-24 20:50 -0.05325 32.30865 14330 ft 333 kts 354°
2026-04-24 20:51 -0.03048 32.30546 13799 ft 329 kts 354°
2026-04-24 20:51 -0.00790 32.30231 13243 ft 328 kts 354°
2026-04-24 20:51 0.01421 32.29923 12684 ft 317 kts 354°
2026-04-24 20:51 0.03579 32.29624 12219 ft 306 kts 354°
2026-04-24 20:52 0.05640 32.29338 11851 ft 297 kts 354°
2026-04-24 20:52 0.07706 32.29052 11537 ft 300 kts 353°
2026-04-24 20:52 0.09791 32.28763 11152 ft 305 kts 353°
2026-04-24 20:52 0.11875 32.28473 10810 ft 297 kts 353°
2026-04-24 20:53 0.13907 32.28190 10285 ft 291 kts 353°
2026-04-24 20:53 0.15872 32.27917 9921 ft 281 kts 353°
2026-04-24 20:53 0.17758 32.27656 9536 ft 272 kts 353°
2026-04-24 20:53 0.19647 32.27404 9193 ft 266 kts 357°
2026-04-24 20:54 0.21410 32.27664 8848 ft 259 kts 25°
2026-04-24 20:54 0.22823 32.28698 8529 ft 251 kts 52°
2026-04-24 20:54 0.23655 32.30199 8213 ft 245 kts 75°
2026-04-24 20:54 0.23989 32.31876 7918 ft 250 kts 84°
2026-04-24 20:55 0.24242 32.33853 7622 ft 261 kts 84°
2026-04-24 20:55 0.24445 32.35440 7488 ft 258 kts 84°
2026-04-24 20:55 0.24678 32.37182 7389 ft 248 kts 84°
2026-04-24 20:55 0.24706 32.38811 7324 ft 223 kts 109°
2026-04-24 20:56 0.23871 32.39951 7246 ft 196 kts 149°
2026-04-24 20:56 0.22712 32.40510 7045 ft 182 kts 156°
2026-04-24 20:56 0.21574 32.40996 6851 ft 170 kts 162°
2026-04-24 20:56 0.20471 32.41318 6652 ft 164 kts 166°
2026-04-24 20:57 0.19394 32.41599 6476 ft 157 kts 168°
2026-04-24 20:57 0.18351 32.41805 6297 ft 148 kts 171°
2026-04-24 20:57 0.17325 32.41967 6067 ft 146 kts 173°
2026-04-24 20:57 0.16347 32.42108 5889 ft 139 kts 173°
2026-04-24 20:58 0.15410 32.42241 5711 ft 136 kts 173°
2026-04-24 20:58 0.14426 32.42379 5577 ft 150 kts 173°
2026-04-24 20:58 0.13374 32.42527 5358 ft 152 kts 173°
2026-04-24 20:58 0.12331 32.42673 5154 ft 150 kts 173°
2026-04-24 20:59 0.11314 32.42815 4969 ft 146 kts 173°
2026-04-24 20:59 0.10307 32.42956 4782 ft 146 kts 173°
2026-04-24 20:59 0.09327 32.43093 4577 ft 143 kts 173°
2026-04-24 20:59 0.08327 32.43234 4269 ft 144 kts 171°
2026-04-24 21:00 0.07359 32.43370 4134 ft 139 kts 172°
2026-04-24 21:00 0.06387 32.43508 3971 ft 142 kts 172°
2026-04-24 21:00 0.05428 32.43640 3798 ft 135 kts 172°
2026-04-24 21:00 0.04574 32.43758 3783 ft 108 kts 172°
2026-04-24 21:01 0.03970 32.43842 3772 ft 67 kts 172°
2026-04-24 21:01 0.03644 32.43888 3766 ft 30 kts 171°
2026-04-24 21:01 0.03493 32.43909 3772 ft 23 kts 171°
2026-04-24 21:01 0.03339 32.43930 3766 ft 25 kts 174°
2026-04-24 21:02 0.03151 32.43957 3762 ft 31 kts 171°
2026-04-24 21:02 0.02949 32.44013 3768 ft 30 kts 149°
2026-04-24 21:02 0.02827 32.44153 3764 ft 20 kts 71°
2026-04-24 21:02 0.02948 32.44158 3767 ft 27 kts 351°
2026-04-24 21:03 0.03148 32.44130 3768 ft 27 kts 351°
2026-04-24 21:03 0.03330 32.44109 3768 ft 25 kts 353°
2026-04-24 21:03 0.03495 32.44083 3772 ft 23 kts 354°
2026-04-24 21:03 0.03636 32.44062 3783 ft 19 kts 352°
2026-04-24 21:04 0.03777 32.44042 3770 ft 21 kts 353°
2026-04-24 21:04 0.03926 32.44022 3774 ft 22 kts 351°
2026-04-24 21:04 0.04081 32.44000 3773 ft 23 kts 350°
2026-04-24 21:04 0.04208 32.44035 3777 ft 18 kts 76°
2026-04-24 21:05 0.04230 32.44121 3784 ft 9 kts 59°
2026-04-24 21:05 0.04267 32.44137 3779 ft 3 kts
2026-04-24 21:05 0.04287 32.44134 3784 ft 5 kts 351°
2026-04-24 21:05 0.04352 32.44125 3779 ft 13 kts 354°
2026-04-24 21:06 0.04439 32.44114 3783 ft 12 kts 354°
2026-04-24 21:06 0.04516 32.44119 3779 ft 10 kts 30°
2026-04-24 21:06 0.04529 32.44165 3785 ft 6 kts 82°
2026-04-24 21:06 0.04532 32.44185 3779 ft 0 kts 81°
2026-04-24 21:07 0.04533 32.44189 3779 ft 0 kts 81°